Weather Roundup
Issued by NWS

Home | Current Version | Previous Version | Text Only | Print | Product List | Glossary On
Versions: 1 2 3 4 5 6 7 8 9 10 11 12 13 14 15 16 17 18 19 20 21 22 23 24 25 26 27 28 29 30 31 32 33 34 35 36 37 38 39 40 41 42 43 44 45 46 47 48 49 50
000
NZUS93 KARX 190959
HRRWXR

CURRENT HOURLY OBSERVATIONS ACROSS
MUCH OF THE UPPER MISSISSIPPI VALLEY
NATIONAL WEATHER SERVICE LA CROSSE WI
500 AM CDT TUE SEP 19 2017


...SOUTHEAST MINNESOTA...


CITY           SKY/WX    TMP DP  RH WIND       PRES   REMARKS
ROCHESTER      CLOUDY    57  56  96 SE5       29.94F
ROCHESTER/MAYO CLOUDY    57  57  99 SE6       29.94S
WINONA         CLOUDY    59  57  94 SE6       29.95S
AUSTIN         CLOUDY    59  55  88 CALM      29.92F
ALBERT LEA     CLOUDY    64  64 100 S5        29.92R FOG
DODGE CENTER   MOCLDY    57  55  94 SE3       29.93S
PRESTON        MOCLDY    56  54  93 SE3       29.95S
OWATONNA       MOCLDY    61  59  94 E3        29.92R
FARIBAULT      CLOUDY    61  59  94 SE5       29.92S
$$

...ELSEWHERE IN MINNESOTA...


CITY           SKY/WX    TMP DP  RH WIND       PRES   REMARKS
MINNEAPOLIS    CLOUDY    60  58  92 SE7       29.92S
INTNL FALLS    CLOUDY    53  50  89 SE6       29.91F
DULUTH         DRIZZLE   54  54 100 E7        29.96S FOG
RED WING       PTCLDY    59  55  88 CALM      29.92S
REDWOOD FALLS  CLOUDY    64  62  93 SE10      29.85F FOG
MANKATO        CLOUDY    62  62 100 SE7       29.90S FOG
WORTHINGTON    CLOUDY    64  63  96 SE7       29.86F
FAIRMONT       CLOUDY    64  64 100 S8        29.88F FOG
$$

...SOUTHWEST WISCONSIN...


CITY           SKY/WX    TMP DP  RH WIND       PRES   REMARKS
LA CROSSE      MOCLDY    60  59  96 SE6       29.95S
PRAIRIE DU CHI CLEAR     58  56  93 CALM      29.95S
BOSCOBEL       CLEAR     58  56  93 CALM      29.96S
LONE ROCK      NOT AVBL
PLATTEVILLE    CLEAR     58  57  96 E3        29.96S
FORT MC COY    CLOUDY    55  54  96 CALM      29.97F
MAUSTON-NEW LI PTSUNNY   56  55  95 CALM      29.98S
VIROQUA        FAIR      56  56 100 E6        29.97S
WIS DELLS      NOT AVBL
$$

...ELSEWHERE IN WISCONSIN...


CITY           SKY/WX    TMP DP  RH WIND       PRES   REMARKS
MILWAUKEE      CLOUDY    65  63  93 CALM      29.96S
MADISON        CLOUDY    58  56  93 N5        29.97F
GREEN BAY      MOCLDY    60  59  96 NE9       30.00S
EAU CLAIRE     NOT AVBL
BLACK RVR FLS  CLOUDY    58  58 100 CALM      29.97S
MEDFORD        CLEAR     52  51  95 CALM      30.00S
WAUSAU         CLOUDY    54  52  93 E9        29.99F
WIS RAPIDS     CLOUDY    58  52  80 E5        30.00S
MARSHFIELD     CLOUDY    55  51  86 E8        29.99S
RICE LAKE      CLOUDY    58  57  95 E6        29.98S
$$

...NORTHEAST IOWA...


CITY           SKY/WX    TMP DP  RH WIND       PRES   REMARKS
WATERLOO       CLEAR     52  52 100 CALM      29.92F
DUBUQUE        CLEAR     58  56  93 CALM      29.96S
DECORAH        CLEAR     57  55  94 SE6       29.93F
MASON CITY     FOG       61  60  97 SE5       29.93S VSB 1/2
CHARLES CITY   MOCLDY    55  55 100 E6        29.94R
OELWEIN        MOCLDY    55  55 100 SE6       29.94F FOG
$$

...ELSEWHERE IN IOWA...


CITY           SKY/WX    TMP DP  RH WIND       PRES   REMARKS
DES MOINES     FOG       64  64 100 SE8       29.89F VSB 1/8
IOWA CITY      FOG       64  63  96 CALM      29.95R VSB 1/4
FORT DODGE     CLOUDY    65  63  93 SE5       29.89F
MARSHALLTOWN   FOG       59  59 100 SE5       29.92S VSB 1/2
CEDAR RAPIDS   FOG       59  59 100 NE3       29.93S VSB<1/4
$$

...NORTHERN ILLINOIS...


CITY           SKY/WX    TMP DP  RH WIND       PRES   REMARKS
CHICAGO-OHARE  LGT RAIN  66  64  93 N6        29.93F
CHICAGO-MIDWAY CLOUDY    67  65  93 N6        29.92F FOG
MOLINE         CLOUDY    64  61  90 E8        29.94S FOG
ROCKFORD       LGT RAIN  61  60  97 E6        29.97S
PEORIA         FOG       66  66 100 CALM      29.94S VSB 1/4
$$

NOTE: "FAIR" INDICATES FEW OR NO CLOUDS BELOW 12,000 FEET WITH NO
SIGNIFICANT WEATHER AND/OR OBSTRUCTIONS TO VISIBILITY. WIND
SPEEDS ARE IN MILES-PER-HOUR.




USA.gov is the U.S. government's official web portal to all federal, state and local government web resources and services.